K5TCS Weather Reports


Display with metric or nautical units.
time (UTC)temp
F
wind
direction
speed
MPH
gust
MPH
rain 1hr
in
rain 24hr
in
rain mn
in
humidity
%
barometer
mb
20260901233017 81 0 1.0 4.0 0.00 0.14 0.14 41 1027.0
20260901232017 81 0.0 4.0 0.00 0.14 0.14 41 1027.1
20260901231017 80 0.0 4.0 0.00 0.14 0.14 41 1026.6
20260901230038 80 338 1.0 4.0 0.00 0.14 0.14 40 1026.8
20260901225017 79 23 1.0 4.0 0.00 0.14 0.14 40 1027.1
20260901224018 79 0.0 4.0 0.00 0.14 0.14 38 1027.5
20260901223017 78 0.0 3.0 0.00 0.14 0.14 37 1027.2
20260901222037 76 0.0 3.0 0.00 0.14 0.14 35 1026.6
20260901221037 75 0.0 4.0 0.00 0.14 0.14 31 1026.4
20260901220017 73 293 1.0 3.0 0.00 0.14 0.14 29 1026.5
20260901215017 69 0.0 3.0 0.00 0.14 0.14 21 1025.3
20260901214017 68 338 1.0 3.0 0.01 0.14 0.14 16 1024.8
20260901213017 67 0.0 0.0 0.01 0.14 0.14 11 1024.9
20260901212017 66 0.0 3.0 0.01 0.14 0.14 11 1024.5
20260901211017 64 0 1.0 3.0 0.01 0.14 0.14 13 1024.2
20260901210017 63 315 1.0 3.0 0.02 0.14 0.14 16 1024.1
20260901205017 63 0.0 3.0 0.02 0.14 0.14 14 1024.3
20260901204017 63 0 1.0 3.0 0.02 0.13 0.13 14 1024.5
20260901203057 63 0 2.0 4.0 0.02 0.13 0.13 14 1024.6
20260901202017 63 315 2.0 6.0 0.04 0.13 0.13 16 1024.6
20260901201017 64 293 2.0 6.0 0.07 0.13 0.13 13 1024.7
20260901200037 65 270 2.0 6.0 0.11 0.12 0.12 10 1024.4
20260901195057 64 0.0 4.0 0.12 0.12 0.12 10 1024.1
20260901194017 63 0 2.0 5.0 0.11 0.11 0.11 12 1024.1
20260901193017 63 0 3.0 6.0 0.11 0.11 0.11 17 1023.8
20260901192017 63 315 2.0 6.0 0.09 0.09 0.09 27 1024.0
20260901191017 64 338 3.0 14.0 0.06 0.06 0.06 37 1024.2
20260901190017 68 315 4.0 13.0 0.01 0.01 0.01 50 1025.6
20260901185037 69 315 4.0 12.0 0.00 0.00 0.00 52 1025.9
20260901184017 70 315 4.0 15.0 0.00 0.00 0.00 51 1026.3
20260901183017 72 338 4.0 11.0 0.00 0.00 0.00 48 1026.8
20260901182016 75 338 5.0 12.0 0.00 0.00 0.00 45 1026.9
20260901181016 82 225 4.0 16.0 0.00 0.00 0.00 38 1029.1
20260901180037 83 68 2.0 10.0 0.00 0.00 0.00 37 1029.4
20260901175016 82 135 2.0 10.0 0.00 0.00 0.00 38 1029.6
20260901174018 82 90 1.0 7.0 0.00 0.00 0.00 38 1029.8
20260901173016 81 90 1.0 7.0 0.00 0.00 0.00 38 1029.2
20260901172017 79 23 1.0 6.0 0.00 0.00 0.00 40 1028.6
20260901171016 79 45 2.0 9.0 0.00 0.00 0.00 39 1029.6
20260901170017 79 68 1.0 6.0 0.00 0.00 0.00 39 1029.9
20260901165016 79 45 1.0 9.0 0.00 0.00 0.00 39 1030.0
20260901164016 78 68 1.0 6.0 0.00 0.00 0.00 40 1029.5
20260901163016 77 68 1.0 4.0 0.00 0.00 0.00 41 1029.4
20260901162016 78 68 1.0 7.0 0.00 0.00 0.00 41 1029.5
20260901161016 77 45 1.0 5.0 0.00 0.00 0.00 41 1029.7
20260901160016 76 23 2.0 7.0 0.00 0.00 0.00 41 1029.2
20260901155057 76 0.0 4.0 0.00 0.00 0.00 41 1029.4
20260901154016 75 45 1.0 5.0 0.00 0.00 0.00 42 1029.5
20260901153056 74 68 1.0 5.0 0.00 0.00 0.00 43 1029.4
20260901152016 74 23 1.0 5.0 0.00 0.00 0.00 43 1029.3
20260901151036 73 45 1.0 6.0 0.00 0.00 0.00 42 1029.5
20260901150016 73 45 1.0 4.0 0.00 0.00 0.00 43 1029.7
20260901145016 72 0.0 4.0 0.00 0.00 0.00 42 1029.1
20260901144016 71 68 1.0 4.0 0.00 0.00 0.00 42 1029.2
20260901143016 68 0.0 2.0 0.00 0.00 0.00 42 1028.7
20260901142016 65 0.0 1.0 0.00 0.00 0.00 43 1027.7
20260901141016 62 0.0 0.0 0.00 0.00 0.00 44 1027.2
20260901140016 60 0.0 0.0 0.00 0.00 0.00 43 1026.6
20260901135016 59 0.0 0.0 0.00 0.00 0.00 42 1026.6
20260901134036 57 0.0 0.0 0.00 0.00 0.00 41 1026.4
20260901133016 56 0.0 0.0 0.00 0.00 0.00 41 1026.3
20260901132016 55 0.0 0.0 0.00 0.00 0.00 42 1025.7
20260901131016 56 0.0 1.0 0.00 0.00 0.00 43 1026.5
20260901130016 57 0.0 0.0 0.00 0.00 0.00 43 1026.4
20260901125016 56 0.0 0.0 0.00 0.00 0.00 44 1026.3
20260901124016 57 0.0 0.0 0.00 0.00 0.00 44 1027.0
20260901123016 57 0.0 1.0 0.00 0.00 0.00 44 1027.1
20260901122016 58 0.0 0.0 0.00 0.00 0.00 44 1026.9
20260901121036 58 0.0 0.0 0.00 0.00 0.00 44 1027.1
20260901120015 58 0.0 0.0 0.00 0.00 0.00 44 1027.1
20260901115016 57 0.0 0.0 0.00 0.00 0.00 43 1026.5
20260901114016 57 0.0 0.0 0.00 0.00 0.00 43 1025.8
20260901113016 57 0.0 2.0 0.00 0.00 0.00 44 1025.8
20260901112015 58 0.0 0.0 0.00 0.00 0.00 44 1025.6
20260901111016 58 0.0 2.0 0.00 0.00 0.00 45 1026.0
20260901110035 58 0.0 0.0 0.00 0.00 0.00 44 1026.1
20260901105016 58 0.0 0.0 0.00 0.00 0.00 43 1026.0
20260901104015 58 0.0 0.0 0.00 0.00 0.00 43 1025.8
20260901103015 58 0.0 0.0 0.00 0.00 0.00 44 1025.9
20260901102017 58 0.0 0.0 0.00 0.00 0.00 45 1025.9
20260901101017 59 0.0 0.0 0.00 0.00 0.00 46 1026.3
20260901100017 61 248 1.0 4.0 0.00 0.00 0.00 48 1027.0
20260901095058 61 248 2.0 7.0 0.00 0.00 0.00 48 1027.0
20260901094017 61 248 2.0 6.0 0.00 0.00 0.00 47 1026.5
20260901093017 61 248 2.0 7.0 0.00 0.00 0.00 47 1026.5
20260901092037 61 248 3.0 6.0 0.00 0.00 0.00 46 1026.7
20260901091017 61 270 2.0 9.0 0.00 0.00 0.00 46 1027.1
20260901090017 61 0.0 3.0 0.00 0.00 0.00 46 1027.0
20260901085017 61 0.0 4.0 0.00 0.00 0.00 47 1026.8
20260901084017 61 0.0 3.0 0.00 0.00 0.00 47 1026.9
20260901083017 61 0.0 4.0 0.00 0.00 0.00 47 1026.9
20260901082017 62 0.0 2.0 0.00 0.00 0.00 49 1026.8
20260901081037 62 248 1.0 4.0 0.00 0.00 0.00 48 1027.3
20260901080037 62 0.0 2.0 0.00 0.00 0.00 49 1027.5
20260901075017 62 0.0 3.0 0.00 0.00 0.00 49 1027.6
20260901074017 63 248 1.0 5.0 0.00 0.00 0.00 49 1027.7
20260901073017 63 248 2.0 7.0 0.00 0.00 0.00 49 1027.6
20260901072037 63 248 1.0 4.0 0.00 0.00 0.00 49 1027.7
20260901071017 63 0.0 4.0 0.00 0.00 0.00 48 1028.7
20260901070017 63 0.0 3.0 0.00 0.00 0.00 48 1028.3
20260901065017 63 203 1.0 4.0 0.00 0.00 0.00 49 1028.8
20260901064017 63 0.0 3.0 0.00 0.00 0.00 49 1028.6
20260901063017 64 203 1.0 5.0 0.00 0.00 0.00 49 1029.2
20260901062017 64 225 2.0 10.0 0.00 0.00 0.00 49 1029.2
20260901061017 65 248 2.0 9.0 0.00 0.00 0.00 49 1029.2
20260901060017 65 248 3.0 9.0 0.00 0.00 0.00 50 1029.3
20260901055036 66 225 2.0 7.0 0.00 0.00 0.00 51 1029.2
20260901054017 66 248 4.0 10.0 0.00 0.00 0.00 51 1029.2
20260901053016 66 248 3.0 11.0 0.00 0.00 0.00 51 1029.5
20260901052017 66 248 3.0 9.0 0.00 0.00 0.00 52 1029.6
20260901051016 66 248 3.0 9.0 0.00 0.00 0.00 53 1029.1
20260901050016 67 248 2.0 9.0 0.00 0.00 0.00 54 1029.5
20260901045016 68 248 3.0 9.0 0.00 0.00 0.00 53 1029.2
20260901044017 69 248 2.0 8.0 0.00 0.00 0.00 51 1029.4
20260901043016 67 248 4.0 11.0 0.00 0.00 0.00 54 1028.5
20260901042016 67 0.0 3.0 0.00 0.00 0.00 52 1028.7
20260901041016 69 0.0 0.0 0.00 0.00 0.00 50 1028.5
20260901040017 70 0.0 0.0 0.00 0.00 0.00 49 1028.8
20260901035016 71 0.0 0.0 0.00 0.00 0.00 48 1028.7
20260901034016 71 0.0 0.0 0.00 0.00 0.00 47 1028.1
20260901033036 72 0.0 0.0 0.00 0.00 0.00 47 1028.2
20260901032036 72 0.0 0.0 0.00 0.00 0.00 47 1028.2
20260901031016 72 0.0 1.0 0.00 0.00 0.00 46 1027.2
20260901030016 73 0.0 2.0 0.00 0.00 0.00 46 1027.5
20260901025016 73 0.0 1.0 0.00 0.00 0.00 46 1027.3
20260901024016 73 0.0 0.0 0.00 0.00 0.00 45 1025.3
20260901023016 74 0.0 2.0 0.00 0.00 0.00 44 1025.6
20260901022016 74 0.0 4.0 0.00 0.00 0.00 44 1025.4
20260901021016 74 0.0 3.0 0.00 0.00 0.00 44 1023.4
20260901020016 75 0.0 2.0 0.00 0.00 0.00 43 1023.6
20260901015036 75 0.0 3.0 0.00 0.00 0.00 43 1023.4
20260901014016 76 0.0 1.0 0.00 0.00 0.00 42 1022.5
20260901013056 76 0.0 4.0 0.00 0.00 0.00 41 1022.5
20260901012016 77 0.0 4.0 0.00 0.00 0.00 41 1022.9
20260901011016 78 0.0 2.0 0.00 0.00 0.00 40 1023.0
20260901010016 79 90 1.0 6.0 0.00 0.00 0.00 40 1023.5
20260901005016 80 90 2.0 7.0 0.00 0.00 0.00 39 1023.4
20260901004016 80 68 2.0 10.0 0.00 0.00 0.00 38 1024.0
20260901003016 81 113 3.0 10.0 0.00 0.00 0.00 37 1024.0
20260901002015 83 90 2.0 11.0 0.00 0.00 0.00 36 1024.5
20260901001016 83 90 2.0 9.0 0.00 0.00 0.00 36 1024.5
20260901000035 84 135 1.0 6.0 0.00 0.00 0.00 35 1024.8
20260831235016 84 90 1.0 9.0 0.00 0.00 0.00 34 1024.5
20260831234015 84 113 2.0 8.0 0.00 0.00 0.00 34 1024.1